Regional Weather Roundup
Issued by NWS Cleveland, OH

Home | Current Version | Previous Version | Graphics & Text | Print | Product List | Glossary On
Versions: 1 2 3 4 5 6 7 8 9 10 11 12 13 14 15 16 17 18 19 20 21 22 23 24 25 26 27 28 29 30 31 32 33 34 35 36 37 38 39 40 41 42 43 44 45 46 47 48 49 50
000
ASUS41 KCLE 171410
RWRCLE
OHIO REGIONAL WEATHER ROUNDUP
NATIONAL WEATHER SERVICE WILMINGTON, OH
900 AM EST FRI NOV 17 2017

NOTE: "FAIR" INDICATES FEW OR NO CLOUDS BELOW 12,000 FEET WITH NO
SIGNIFICANT WEATHER AND/OR OBSTRUCTIONS TO VISIBILITY.

OHZ001>008-015>018-024>027-034-035-043-044-171500-
   NORTHWEST OHIO

CITY           SKY/WX    TMP DP  RH WIND       PRES   REMARKS
DEFIANCE       FAIR      34  28  79 SE6       30.24F WCI  29
FINDLAY        FAIR      36  28  73 SE9       30.25F
TOLEDO EXPRESS FAIR      38  30  73 SE6       30.24F
TOLEDO EXEC    CLOUDY    38  28  67 SE8       30.28F
LIMA           CLOUDY    36  31  82 S13       30.24F
$$

OHZ009>014-019>023-028>033-038-089-171500-
   NORTHEAST OHIO

CITY           SKY/WX    TMP DP  RH WIND       PRES   REMARKS
CLE-HOPKINS    CLOUDY    39  29  67 CALM      30.30F
CLE-LAKEFRONT  CLOUDY    39  27  62 CALM      30.28F
CUY CO. ARPT   CLOUDY    39  30  70 S6        30.28F
LORAIN-ELYRIA  CLOUDY    38  27  64 S3        30.28F
ASHTABULA      CLOUDY    37  30  75 W3        30.28S
AKRON-CANTON   CLOUDY    37  27  67 N6        30.29R
WOOSTER        CLOUDY    36  27  69 CALM      30.28S
MANSFIELD      CLOUDY    35  27  72 SE7       30.26F WCI  29
YOUNGSTOWN     CLOUDY    36  27  69 W6        30.28R
$$

OHZ042-051>053-060>062-070>072-077>081-171500-
  SOUTHWEST OHIO

CITY           SKY/WX    TMP DP  RH WIND       PRES   REMARKS
CINC-COVINGTON CLOUDY    34  30  85 SE10      30.25S WCI  26
CINC-LUNKEN    CLOUDY    37  31  78 SE9       30.30R
HAMILTON       CLOUDY    37  31  78 VRB5      30.28R
DAYTON         CLOUDY    36  32  85 SE15      30.25S
WRIGHT-PAT AFB CLOUDY    37  30  75 SE10      30.26R
DAYTON GENERAL CLOUDY    36  30  79 S13       30.26R
WILMINGTON     CLOUDY    36  31  82 SE7       30.27R
$$

OHZ036-037-039>041-045>050-054>059-063>069-073>076-082>088-171500-
  CENTRAL AND SOUTHEAST OHIO

CITY           SKY/WX    TMP DP  RH WIND       PRES   REMARKS
COLUMBUS       CLOUDY    39  30  70 SE8       30.28R
OSU AIRPORT    CLOUDY    38  31  76 S6        30.28R
BOLTON FIELD   CLOUDY    37  30  75 S7        30.29R
RICKENBACK AFB CLOUDY    38  31  77 SE7       30.29R
NEWARK         CLOUDY    38  27  64 SE5       30.29R
MARION         CLOUDY    36  27  69 S8        30.29R
LANCASTER      CLOUDY    38  30  73 S6        30.29S
ZANESVILLE     CLOUDY    38  28  67 VRB3      30.30S
NEW PHILLY     CLOUDY    38  27  64 CALM      30.31R
$$



USA.gov is the U.S. government's official web portal to all federal, state and local government web resources and services.